Stations météo

Publicité
Cap Bear, France (7749): Température de l'air & dewpoint: 14.09.2019 05:00:00 - 20.09.2019 05:00:00 (CEST)Cap Bear, France (7749): Vitesse du vent & gusts: 14.09.2019 05:00:00 - 20.09.2019 05:00:00 (CEST)Cap Bear, France (7749): Direction du vent: 14.09.2019 05:00:00 - 20.09.2019 05:00:00 (CEST)Cap Bear, France (7749): reduced air pressure: 14.09.2019 05:00:00 - 20.09.2019 05:00:00 (CEST)Cap Bear, France (7749): visibility: 14.09.2019 05:00:00 - 20.09.2019 05:00:00 (CEST)Cap Bear, France (7749): Quantités de précipitations: 14.09.2019 05:00:00 - 20.09.2019 05:00:00 (CEST)
Date & Time tt [°C] td [°C] ff [km/h] ff [knt] fx [km/h] fx [knt] dd ppp [hPa] vv [km] rr [mm]
20.09.2019 05:00:00 19,9 15,1 16 9 20 11 NNW 1019,3 30 0,0
20.09.2019 04:00:00 19,8 16,1 7 4 14 7 NNW 1019,5 - 0,0
20.09.2019 03:00:00 20,4 15,8 5 3 27 15 N 1019,7 - 0,0
20.09.2019 02:00:00 21,0 17,0 20 11 27 15 N 1019,2 - 0,0
20.09.2019 01:00:00 21,2 16,2 8 4 16 9 NNW 1018,9 - 0,0
20.09.2019 00:00:00 21,4 16,6 11 6 14 7 NNW 1018,7 - 0,0
19.09.2019 23:00:00 21,7 17,3 6 3 13 7 N 1018,7 - 0,0
19.09.2019 22:00:00 21,8 16,7 6 4 17 9 N 1018,1 - 0,0
19.09.2019 21:00:00 22,9 15,2 13 7 31 17 SSW 1017,2 - 0,0
19.09.2019 20:00:00 23,1 15,4 28 15 49 26 S 1016,8 - 0,0
19.09.2019 19:00:00 21,6 17,4 18 10 24 13 S 1016,6 - 0,0
19.09.2019 18:00:00 21,2 17,8 15 8 18 10 S 1016,3 - 0,0
19.09.2019 17:00:00 21,8 17,6 14 7 20 11 S 1016,4 20 0,0
19.09.2019 16:00:00 21,9 17,9 11 6 16 9 SSE 1016,6 - 0,0
19.09.2019 15:00:00 22,2 18,0 10 5 16 9 SSE 1017,1 - 0,0
19.09.2019 14:00:00 23,3 18,2 6 3 13 7 NE 1017,5 20 0,0
19.09.2019 13:00:00 23,6 18,5 9 5 14 7 NNE 1018,0 - 0,0
19.09.2019 12:00:00 21,9 16,8 12 7 16 8 N 1018,4 - 0,0
19.09.2019 11:00:00 21,1 16,9 15 8 23 13 NNW 1018,5 20 0,0
19.09.2019 10:00:00 20,8 16,8 18 10 26 14 NNW 1018,3 - 0,0
19.09.2019 09:00:00 20,1 16,9 22 12 29 16 NNW 1017,8 - 0,0
19.09.2019 08:00:00 19,4 17,7 16 9 22 12 NW 1017,2 20 0,0
19.09.2019 07:00:00 19,9 17,7 6 3 23 12 N 1016,8 - 0,0
19.09.2019 06:00:00 19,7 15,8 9 5 13 7 NNW 1016,5 - 0,0
19.09.2019 05:00:00 19,2 17,0 9 5 32 18 NNW 1016,6 25 0,0
19.09.2019 04:00:00 20,2 17,2 33 18 39 21 N 1016,1 - -
19.09.2019 03:00:00 22,9 15,0 16 9 41 22 NW 1016,4 - 0,0
19.09.2019 02:00:00 22,8 14,4 29 15 44 24 WNW 1016,8 - 0,0
19.09.2019 01:00:00 22,3 15,4 26 14 37 20 NW 1017,4 - 0,0
19.09.2019 00:00:00 21,9 15,0 21 11 35 19 NW 1017,4 - 0,0
18.09.2019 23:00:00 21,7 17,1 28 15 44 24 NW 1017,1 - 0,0
18.09.2019 22:00:00 21,6 16,8 26 14 43 23 NNW 1016,8 - 0,0
18.09.2019 21:00:00 22,0 17,6 24 13 29 16 NNW 1015,4 - 0,0
18.09.2019 20:00:00 25,3 13,2 8 4 17 9 S 1014,4 - 0,0
18.09.2019 19:00:00 23,6 13,7 9 5 21 11 SSE 1014,4 - 0,0
18.09.2019 18:00:00 23,5 14,2 18 10 22 12 S 1015,0 - 0,0
18.09.2019 17:00:00 22,3 17,2 17 9 20 11 SSE 1014,7 25 0,0
18.09.2019 16:00:00 24,1 17,6 11 6 15 8 S 1015,1 - 0,0
18.09.2019 15:00:00 24,4 18,1 - - 15 8 - 1015,6 - 0,0
18.09.2019 14:00:00 26,3 13,1 4 2 14 8 N 1015,7 25 0,0
18.09.2019 13:00:00 25,0 16,7 6 4 18 10 N 1016,1 - 0,0
18.09.2019 12:00:00 24,8 16,5 13 7 21 12 NNW 1015,9 - 0,0
18.09.2019 11:00:00 23,9 17,4 13 7 26 14 NNW 1015,8 18 0,0
18.09.2019 10:00:00 24,0 14,4 8 4 32 17 NW 1015,4 - 0,0
18.09.2019 09:00:00 24,0 13,8 18 10 37 20 NNW 1014,9 - 0,0
18.09.2019 08:00:00 23,2 15,3 32 17 44 24 NW 1014,0 18 0,0
18.09.2019 07:00:00 22,7 16,5 29 16 46 25 NW 1013,8 - 0,0
18.09.2019 06:00:00 22,2 17,6 33 18 41 22 NW 1013,2 - 0,0
18.09.2019 05:00:00 24,9 15,8 23 13 33 18 NW 1013,4 20 0,0
18.09.2019 04:00:00 24,0 15,8 23 12 34 18 NW 1013,6 - 0,0
18.09.2019 03:00:00 21,8 17,2 13 7 18 10 N 1013,9 - 0,0
18.09.2019 02:00:00 24,0 15,2 5 3 10 6 ESE 1013,8 - 0,0
18.09.2019 01:00:00 26,0 14,5 6 3 16 9 NW 1013,7 - 0,0
18.09.2019 00:00:00 24,9 15,5 4 2 11 6 SSE 1014,1 - 0,0
17.09.2019 23:00:00 25,0 15,6 8 4 21 11 WNW 1013,8 - 0,0
17.09.2019 22:00:00 25,6 15,3 17 9 19 11 NW 1013,5 - 0,0
17.09.2019 21:00:00 25,9 16,4 5 3 16 9 W 1013,2 - 0,0
17.09.2019 20:00:00 25,0 16,4 6 3 26 14 W 1013,1 - 0,0
17.09.2019 19:00:00 23,6 18,9 19 10 26 14 SSE 1013,4 - 0,0
17.09.2019 18:00:00 24,7 17,7 13 7 17 9 SSE 1013,8 - 0,0
17.09.2019 17:00:00 24,5 18,2 16 8 20 11 SSE 1014,3 18 0,0
17.09.2019 16:00:00 25,0 18,0 9 5 13 7 SSE 1015,0 - 0,0
17.09.2019 15:00:00 26,3 18,2 5 3 14 8 SSE 1015,3 - 0,0
17.09.2019 14:00:00 26,8 17,3 5 3 12 6 SE 1015,9 - 0,0
17.09.2019 13:00:00 26,2 19,1 5 3 10 5 SE 1016,4 - 0,0
17.09.2019 12:00:00 25,0 18,2 4 2 17 9 NNW 1017,1 - 0,0
17.09.2019 11:00:00 23,0 18,1 11 6 17 9 NW 1017,0 15 0,0
17.09.2019 10:00:00 23,8 18,2 6 3 8 5 NNW 1016,9 - 0,0
17.09.2019 09:00:00 23,1 18,2 3 2 7 4 SE 1016,6 - 0,0
17.09.2019 08:00:00 21,1 17,3 0 0 5 3 N 1016,3 - 0,0
17.09.2019 07:00:00 20,6 17,2 5 3 10 5 SE 1016,1 - 0,0
17.09.2019 06:00:00 20,9 17,9 4 2 9 5 NW 1016,0 - 0,0
17.09.2019 05:00:00 20,6 18,2 4 2 15 8 WNW 1016,1 18 0,0
17.09.2019 04:00:00 20,5 17,5 6 3 13 7 WNW 1016,4 - 0,0
17.09.2019 03:00:00 20,7 17,7 7 4 17 9 W 1016,9 - 0,0
17.09.2019 02:00:00 21,2 17,8 6 3 18 10 WNW 1017,4 - 0,0
17.09.2019 01:00:00 21,4 17,2 11 6 18 10 NW 1017,6 - 0,0
17.09.2019 00:00:00 22,0 17,8 13 7 22 12 NW 1017,7 - 0,0
16.09.2019 23:00:00 21,4 18,8 17 9 22 12 NW 1017,7 - 0,0
16.09.2019 22:00:00 22,9 17,1 20 11 27 14 WNW 1017,7 - 0,0
16.09.2019 21:00:00 21,6 18,8 22 12 28 15 WNW 1017,5 - 0,0
16.09.2019 20:00:00 21,4 20,0 18 10 22 12 NW 1017,1 18 0,0
16.09.2019 19:00:00 21,1 20,1 19 11 29 16 S 1016,9 - 0,0
16.09.2019 18:00:00 21,7 20,2 21 11 32 17 SSE 1017,0 - 0,0
16.09.2019 17:00:00 21,8 19,9 29 16 35 19 SSE 1017,1 - 0,0
16.09.2019 16:00:00 21,9 18,9 27 14 32 17 SSE 1017,8 - 0,0
16.09.2019 15:00:00 22,3 18,1 24 13 27 15 SSE 1018,7 - 0,0
16.09.2019 14:00:00 22,5 18,7 18 10 22 12 SE 1019,5 18 0,0
16.09.2019 13:00:00 22,7 18,0 8 4 14 7 ESE 1020,0 - 0,0
16.09.2019 12:00:00 22,0 17,4 9 5 15 8 N 1020,3 - 0,0
16.09.2019 11:00:00 21,9 16,0 15 8 22 12 NNW 1020,4 - 0,0
16.09.2019 10:00:00 20,5 16,7 19 10 26 14 NW 1020,4 - 0,0
16.09.2019 09:00:00 19,8 17,2 20 11 26 14 NW 1020,0 - 0,0
16.09.2019 08:00:00 19,4 15,9 20 11 31 17 NW 1020,0 - 0,0
16.09.2019 07:00:00 19,0 15,9 29 15 35 19 NW 1019,8 - 0,0
16.09.2019 06:00:00 18,6 15,7 29 16 33 18 NW 1019,7 - 0,0
16.09.2019 05:00:00 19,6 15,7 27 15 32 17 NW 1019,9 - 0,0
16.09.2019 04:00:00 19,7 15,8 16 9 18 10 NW 1020,3 - 0,0
16.09.2019 03:00:00 20,0 16,0 12 6 22 12 NW 1020,7 - 0,0
16.09.2019 02:00:00 19,9 16,3 19 10 22 12 NW 1021,1 - 0,0
16.09.2019 01:00:00 20,1 17,1 18 10 23 13 WNW 1021,1 - 0,0
16.09.2019 00:00:00 20,0 17,4 21 11 24 13 WNW 1021,4 - 0,0
15.09.2019 23:00:00 20,1 16,9 5 3 16 9 WNW 1021,2 - 0,0
15.09.2019 22:00:00 20,6 17,0 13 7 21 11 NNW 1021,1 - 0,0
15.09.2019 21:00:00 20,7 18,6 14 8 31 17 S 1021,1 - 0,0
15.09.2019 20:00:00 21,8 16,7 27 14 35 19 SSE 1020,7 - 0,0
15.09.2019 19:00:00 21,3 17,1 27 15 30 16 SSE 1021,1 - 0,0
15.09.2019 18:00:00 21,1 19,6 20 11 29 16 SSE 1021,4 - 0,0
15.09.2019 17:00:00 21,5 19,6 26 14 36 19 SSE 1022,0 - 0,0
15.09.2019 16:00:00 21,5 18,9 19 11 25 14 SE 1022,4 - 0,0
15.09.2019 15:00:00 21,6 19,5 16 9 23 13 E 1023,0 - 0,0
15.09.2019 14:00:00 22,2 19,6 13 7 18 10 E 1023,5 - 0,0
15.09.2019 13:00:00 22,0 19,5 7 4 10 5 ENE 1023,8 - 0,0
15.09.2019 12:00:00 21,4 19,0 7 4 11 6 N 1024,4 - 0,0
15.09.2019 11:00:00 21,3 17,5 10 6 16 9 NNW 1024,5 20 0,0
15.09.2019 10:00:00 20,9 15,9 8 4 18 10 NW 1024,4 - 0,0
15.09.2019 09:00:00 20,1 15,5 7 4 15 8 NW 1023,9 - 0,0
15.09.2019 08:00:00 19,4 14,9 3 2 21 11 NW 1024,1 20 0,0
15.09.2019 07:00:00 18,5 15,6 18 10 23 13 NW 1023,5 30 0,0
15.09.2019 06:00:00 20,0 17,4 4 2 19 10 S 1023,4 - 0,0
15.09.2019 05:00:00 20,2 17,4 3 1 8 5 NNE 1023,9 - 0,0
15.09.2019 04:00:00 20,2 17,0 6 4 10 5 ESE 1024,8 - 0,0
15.09.2019 03:00:00 19,9 17,1 5 3 15 8 NE 1024,5 - 0,0
15.09.2019 02:00:00 20,2 15,4 13 7 19 10 NW 1024,8 - 0,0
15.09.2019 01:00:00 19,4 16,2 13 7 25 14 NNW 1024,6 - 0,0
15.09.2019 00:00:00 20,7 16,5 21 11 26 14 WNW 1025,2 - 0,0
14.09.2019 23:00:00 19,8 16,4 10 6 18 10 NW 1025,3 - 0,0
14.09.2019 22:00:00 20,8 17,6 4 2 16 9 SSE 1025,1 - 0,0
14.09.2019 21:00:00 20,6 18,0 13 7 19 10 SSE 1025,0 - 0,0
14.09.2019 20:00:00 20,6 17,8 18 10 21 12 SSE 1024,8 15 0,0
14.09.2019 19:00:00 20,9 18,3 14 8 18 10 S 1024,8 - 0,0
14.09.2019 18:00:00 21,4 18,6 7 4 12 6 SSE 1024,9 - 0,0
14.09.2019 17:00:00 22,3 18,3 3 2 11 6 ESE 1024,9 20 0,0
14.09.2019 16:00:00 22,3 18,9 8 4 13 7 N 1025,2 - 0,0
14.09.2019 15:00:00 23,5 19,0 9 5 15 8 ENE 1025,7 - 0,0
14.09.2019 14:00:00 22,7 16,0 10 5 14 8 NNE 1026,4 20 0,0
14.09.2019 13:00:00 22,6 16,6 11 6 16 9 NNW 1027,1 - 0,0
14.09.2019 12:00:00 22,9 15,7 15 8 29 16 NNW 1027,1 - 0,0
14.09.2019 11:00:00 21,3 16,5 25 13 35 19 NW 1026,2 - 0,0
14.09.2019 10:00:00 21,0 14,4 32 17 37 20 NW 1025,9 - 0,0
14.09.2019 09:00:00 20,2 14,3 29 16 31 17 WNW 1025,6 - 0,0
14.09.2019 08:00:00 19,2 14,9 26 14 44 24 NW 1025,9 20 0,2
14.09.2019 07:00:00 18,4 15,8 33 18 40 21 NW 1024,8 - 0,0
14.09.2019 06:00:00 19,2 16,2 16 8 21 11 NNW 1025,4 - 0,0
14.09.2019 05:00:00 20,2 17,0 16 8 19 10 SSE 1025,7 30 0,0

tt = Température de l'air
td = dewpoint
ff = Vitesse du vent
fx = gusts
dd = Direction du vent
ppp = reduced air pressure
vv = visibility
rr = Quantités de précipitations

stations d'obs. à proximité